This is the latest recevied weather packets stored in our database for station/object N9DMT-13. If no packets are shown the sender has not sent any weather packets the latest 1 day(s).
| Time | Temp. | Humidity | Pressure | Rain* | Wind** | Luminosity | Snow |
|---|---|---|---|---|---|---|---|
| 1777989729 | 10.56° C | 42% | 977.7 hPa | 0 mm | 0 m/s | - | - |
| 1777989429 | 10° C | 43% | 977.8 hPa | 0 mm | 0.45 m/s, 247° | - | - |
| 1777989128 | 10° C | 44% | 977.8 hPa | 0 mm | 0 m/s | - | - |
| 1777988827 | 10° C | 44% | 977.9 hPa | 0 mm | 0 m/s | - | - |
| 1777988526 | 10° C | 46% | 977.8 hPa | 0 mm | 0 m/s | - | - |
| 1777988226 | 10° C | 46% | 977.9 hPa | 0 mm | 0 m/s | - | - |
| 1777987925 | 9.44° C | 48% | 977.8 hPa | 0 mm | 0 m/s | - | - |
| 1777987624 | 10° C | 48% | 977.9 hPa | 0 mm | 0 m/s | - | - |
| 1777987323 | 9.44° C | 46% | 977.9 hPa | 0 mm | 0 m/s | - | - |
| 1777987023 | 8.89° C | 48% | 977.9 hPa | 0 mm | 0 m/s | - | - |
| 1777986722 | 8.89° C | 50% | 978 hPa | 0 mm | 0 m/s | - | - |
| 1777986421 | 8.89° C | 48% | 977.9 hPa | 0 mm | 0.89 m/s, 305° | - | - |
| 1777986121 | 8.89° C | 52% | 977.8 hPa | 0 mm | 0 m/s | - | - |
| 1777985820 | 8.33° C | 53% | 977.9 hPa | 0 mm | 0 m/s | - | - |
| 1777985519 | 8.33° C | 53% | 977.7 hPa | 0 mm | 0 m/s | - | - |
| 1777985219 | 7.78° C | 53% | 977.6 hPa | 0 mm | 0 m/s | - | - |
| 1777984918 | 7.22° C | 54% | 977.7 hPa | 0 mm | 0 m/s | - | - |
| 1777984617 | 7.22° C | 58% | 977.5 hPa | 0 mm | 0 m/s | - | - |
| 1777984317 | 7.22° C | 57% | 977.3 hPa | 0 mm | 0 m/s | - | - |
| 1777984016 | 6.67° C | 59% | 977.6 hPa | 0 mm | 0 m/s | - | - |
| 1777983715 | 5.56° C | 72% | 977.3 hPa | 0 mm | 0 m/s | - | - |
| 1777983414 | 5.56° C | 73% | 977.3 hPa | 0 mm | 0 m/s | - | - |
| 1777983113 | 5° C | 74% | 977.3 hPa | 0 mm | 0 m/s | - | - |
| 1777982812 | 4.44° C | 75% | 977.1 hPa | 0 mm | 0 m/s | - | - |
| 1777982512 | 3.33° C | 77% | 977.2 hPa | 0 mm | 0 m/s | - | - |
* Rain latest hour (hover to see other rain measurements)
** Current wind speed in m/s (hover to see current wind gust speed)